Hourly Data Report for September 04, 2019

TORONTO CITY
ONTARIO
Current Station Operator: ECCC - MSC

43°40'00.000" N
79°24'00.000" W
112.50 m
6158355
71508
XTO

Download Data

Hourly Data (September 2019)
Hourly Data Report for September 4, 2019
TIME
LST
Temp Definition
°C
Dew Point Definition
°C
Rel Hum Definition
%
Precip. Amount Definition
mm

Wind Dir Definition
10's deg

Wind Spd Definition
km/h
Visibility Definition
km
Stn Press Definition
kPa
Hmdx Definition


Wind Chill Definition


Weather Definition


00:00 22.2 18.1 78 0.0       99.30 28   LegendNANA
01:00 21.7 18.1 80 3.4       99.29 28   LegendNANA
02:00 20.8 18.0 84 0.0       99.26 27   LegendNANA
03:00 20.6 18.1 85 0.0       99.19 27   LegendNANA
04:00 20.9 18.5 86 0.0       99.25 27   LegendNANA
05:00 18.8 13.7 72 0.0       99.33     LegendNANA
06:00 18.6 12.7 68 0.0       99.44     LegendNANA
07:00 18.9 13.0 68 0.0       99.53     LegendNANA
08:00 19.3 11.9 62 0.0       99.65     LegendNANA
09:00 18.8 11.0 61 0.0       99.77     LegendNANA
10:00 18.5 10.7 60 0.0       99.89     LegendNANA
11:00 18.6 11.1 61 0.0       99.96     LegendNANA
12:00 18.9 10.2 57 0.0       100.03     LegendNANA
13:00 19.2 10.4 57 0.0       100.11     LegendNANA
14:00 19.5 10.3 56 0.0       100.16     LegendNANA
15:00 19.4 9.5 53 0.0       100.23     LegendNANA
16:00 19.3 8.8 51 0.0       100.27     LegendNANA
17:00 19.3 8.6 50 0.0       100.31     LegendNANA
18:00 19.3 8.6 50 0.0       100.35     LegendNANA
19:00 18.1 9.1 55 0.0       100.44     LegendNANA
20:00 17.0 9.6 62 0.0       100.53     LegendNANA
21:00 16.3 9.4 64 0.0       100.57     LegendNANA
22:00 15.6 8.8 64 0.0       100.58     LegendNANA
23:00 15.2 9.0 66 0.0       100.59     LegendNANA

Notes on Data Quality.

Legend

  • E = Estimated
  • M = Missing
  • NA = Not Available*
  • [empty] = Indicates an unobserved value
Date modified: